Regional Weather Roundup
Issued by NWS

Home | Current Version | Previous Version | Text Only | Print | Product List | Glossary On
Versions: 1 2 3 4 5 6 7 8 9 10 11 12 13 14 15 16 17 18 19 20 21 22 23 24 25 26 27 28 29 30 31 32 33 34 35 36 37 38 39 40 41 42 43 44 45 46 47 48 49 50
000
ASHW40 PHFO 200110
RWRHI

WEATHER ROUNDUP FOR HAWAII
NATIONAL WEATHER SERVICE HONOLULU HI
300 PM HST FRI SEP 19 2014

THIS IS AN AUTOMATED REPORT THAT HAS NOT BEEN QUALITY CONTROLLED.

NOTE..."FAIR" INDICATES FEW OR NO CLOUDS BELOW 12,000 FEET WITH NO
SIGNIFICANT WEATHER AND/OR OBSTRUCTIONS TO VISIBILITY.

* - THESE SITES REPORT LIMITED FIELDS

HIZ001>004-200200-
KAUAI-NIIHAU-

CITY           SKY/WX    TMP DP  RH WIND       PRES   REMARKS
LIHUE APT      PTSUNNY   82  71  69 E5        29.89F
PORT ALLEN*      N/A     84 N/A N/A S3          N/A
POIPU*           N/A     88 N/A N/A E3          N/A
PRINCEVILLE*   NOT AVBL
KOKOLE POINT*  NOT AVBL
MOLOAA DAIRY*  NOT AVBL
WAIMEA HTS*    NOT AVBL
PUU OPAE*      NOT AVBL
PUU LUA*       NOT AVBL
MAKAHA RIDGE*  NOT AVBL
$$

HIZ005>011-200200-
OAHU-

CITY           SKY/WX    TMP DP  RH WIND       PRES   REMARKS
HONOLULU       PTSUNNY   86  71  60 SW10      29.87F HX  91
KALAELOA       CLOUDY    85  72  65 S7        29.88F HX  91
KANEOHE MCB    CLOUDY    84  73  69 NE7       29.88F HX  90
WHEELER FIELD  CLOUDY    82  71  68 VRB5      29.89F
BELLOWS*       NOT AVBL
KAHUKU*        NOT AVBL
WHEELER*       NOT AVBL
WAIANAE HARBOR NOT AVBL
DILLINGHAM*      N/A     91  73  55 NW1G7       N/A  HX 100
KAHUKU TRN*      N/A     82  72  69 E6G13       N/A
KAWAILOA*      NOT AVBL
KII*             N/A     82  73  74 E8          N/A
MAKUA RANGE*     N/A     88  72  58 W3G10       N/A  HX  94
OAHU FOREST NW NOT AVBL
SCHOFIELD BRK*   N/A     81  70  69 MISG        N/A
SCHOFIELD S*   NOT AVBL
WAIANAE VLY*   NOT AVBL
KUAOKALA*      NOT AVBL
HONOULIUULI*   NOT AVBL
MOKUOLOE IS*     N/A    N/A N/A N/A MISG        N/A
PALEHUA*       NOT AVBL
WAIAWA PHB*    NOT AVBL
$$

HIZ012>013-200200-
MOLOKAI-

CITY           SKY/WX    TMP DP  RH WIND       PRES   REMARKS
MOLOKAI AIRPT  MOSUNNY   81  75  82 NE9       29.89F
KALAUPAPA      NOT AVBL
MAKAPULAPAI*   NOT AVBL
MOLOKAI 1*     NOT AVBL
PUU ALII*      NOT AVBL
$$

HIZ016-200200-
KAHOOLAWE-

CITY           SKY/WX    TMP DP  RH WIND       PRES   REMARKS
KAHOOLAWE*     NOT AVBL
HAKIOAWA*      NOT AVBL
HONOKANAIA*      N/A     89  74  60 E10G18    29.88  HX  98
KANELOA*         N/A     82  72  69 SE9G18    29.13F
KEALIALALO*    NOT AVBL
LUA MAKIKA*    NOT AVBL
$$

HIZ014>015-200200-
LANAI-

CITY           SKY/WX    TMP DP  RH WIND       PRES   REMARKS
LANAI CITY     CLOUDY    80  70  71 W7        29.95F
LANAI 1*       NOT AVBL
$$

HIZ017>028-200200-
MAUI-

CITY           SKY/WX    TMP DP  RH WIND       PRES   REMARKS
KAHULUI        MOSUNNY   90  70  51 NE14      29.86F HX  95
KAPALUA-W MAUI MOSUNNY   90  72  55 N12       29.87F HX  96
HANA AIRPORT   PTSUNNY   86  73  66 E10       29.90S HX  93
HANA*          NOT AVBL
HALEAKALA SUMM   N/A     63  30  29 S6          N/A
MAALAEA BAY*   NOT AVBL
HALEAKALA*     NOT AVBL
KAUPO GAP*     NOT AVBL
KULA 1*          N/A     66  58  76 NW7         N/A
$$

HIZ023>026-200200-
BIG ISLAND OF HAWAII COAST AND LOWER SLOPES-

CITY           SKY/WX    TMP DP  RH WIND       PRES   REMARKS
KAILUA KONA    SUNNY     86  73  65 W10       29.86F HX  93
HILO           PTSUNNY   83  73  72 SE14      29.87S
HONOKAA*       NOT AVBL
KAWAIHAE MWT*  NOT AVBL
KAWAIHAE*        N/A     82 N/A N/A S6          N/A
SOUTH POINT*   NOT AVBL
UPOLU AIRPORT* NOT AVBL
KAMUELA*       CLOUDY    75  68  78 NE10      30.00S
HAKALAU*         N/A     64  58  82 S6          N/A
KALOKO-HONOKO* NOT AVBL
PALI 2*          N/A     70  70 100 SE12G18     N/A
KEALAKOMO*       N/A     88  73  62 E13G18      N/A  HX  96
KAUPULEHU*     NOT AVBL
KAPAPALA*        N/A     75  70  84 E3G12       N/A
LOWER KAHUKU*  NOT AVBL
PUHE CS*       NOT AVBL
PUHO CS*       NOT AVBL
PTA KEAMUKU*     N/A     72  64  78 W7G14       N/A
WAIKOLOA*      NOT AVBL
$$

HIZ027>028-200200-
BIG ISLAND OF HAWAII INTERIOR AND SUMMMITS-

CITY           SKY/WX    TMP DP  RH WIND       PRES   REMARKS
BRADSHAW FIELD PTSUNNY   68  59  74 W6        30.26S
MK VISITOR CEN NOT AVBL
MAUNA KEA*       N/A     46  36  66 NW13G31     N/A
MAUNA LOA*       N/A     52  45  76 MISG        N/A
MAUNA LOA 1*   NOT AVBL
PTA KIPUKA*      N/A     66  63  88 N5G12       N/A
PTA RANGE 17*    N/A     66  61  82 NW8         N/A
PTA WEST*        N/A     66  64  94 N6G12       N/A
NENE CABIN*    NOT AVBL
AHUMOA*        NOT AVBL
PTA PORTABLE*  NOT AVBL
PUU MALI*      NOT AVBL
$$

HIC003-200200-
NORTHWEST ISLANDS-

CITY           SKY/WX    TMP DP  RH WIND       PRES   REMARKS
MIDWAY ISLAND  MOSUNNY   90  73  58 NE8       30.08F HX  98
MIDWAY NOS*    NOT AVBL
FRENCH FRIGATE NOT AVBL
$$

PHZ110>124-180-200200-
BUOY REPORTS

STATION/POSITION TIME  TEMP    WIND        PRES    WAVE   SWELL
                       AIR SEA DIR/SP/G            HT/PER HT/DIR
                 (UTC) (F)     (DEG/KT/KT) (MB)    (FT/S) (FT/D)
BUOY 51001       NOT AVBL
BUOY 51101       NOT AVBL
BUOY 51100       0000   80 83  130/  6/  6 1012.7F
BUOY 51003       0000   82 85  110/  4/  4 1012.3F   4/11   3
BUOY 51004       0016   80 81   80/ 12/ 14 1011.0F   6/11   5/ 40
BARBERS PT BUOY  NOT AVBL
WAIMEA BAY BUOY  0100      84                N/A     4/ 9   2/ 30
KAILUA BAY BUOY  0100      84                N/A     4/ 9   2/ 80
LANAI BUOY       NOT AVBL
BARBERS PT 2     0100      84                N/A     3/11   2/160
PAUWELA MAUI     0100      82                N/A     4/ 9   2/ 80
HILO             0100      83                N/A     5/10   3/100
KANEOHE BAY BUOY NOT AVBL
HANALEI KAUAI    NOT AVBL
KAHULUI HARBOR   0100   82 83   20/ 12/ 16 1011.2F
HONOLULU HARBOR  0100   82     220/  6/  8 1011.9F
KILO NALU        NOT AVBL
HILO HARBOR      0100   86     110/  9/ 14 1011.0S
MOKUOLOE         0100      86              1012.0F
NAWILIWILI       0100      84                N/A
WHOTS BUOY       NOT AVBL
BUOY 51028       NOT AVBL
$$

......................KEY........................................
  SKY/WX - SKY CONDITIONS/PRESENT WEATHER
  TMP    - TEMPERATURE IN FAHRENHEIT
  DWPT   - DEWPOINT IN FAHRENHEIT
  RH     - RELATIVE HUMIDITY IN PERCENT
  WIND   - DIRECTION AND SPEED /MPH FOR ISLANDS...KTS FOR BUOYS/
  PRES   - MEAN SEA LEVEL PRESSURE IN INCHES OF HG
  VSB    - VISIBILITY IN MILES
  HX     - HEAT INDEX
  WCI    - WIND CHILL INDEX
  VRB    - VARIABLE WIND DIRECTION
  N/A    - NOT AVAILABLE


USA.gov is the U.S. government's official web portal to all federal, state and local government web resources and services.